"Pseudo-MPEC" for ZTF02rx

Created 2019 Feb 15 22:18:16 UT using Find_Orb

Click here for an explanation of pseudo-MPECs

 
 Astrometry: 
     ZTF02rx  C2019 02 09.29484409 40 27.53 -02 29 48.5    ~29Lm 17.19RUNEOCPI41
     ZTF02rx  C2019 02 09.29519109 40 32.36 -02 30 51.5    ~29Lm 17.19RUNEOCPI41
     ZTF02rx  C2019 02 09.30067009 41 46.04 -02 47 20.1    ~29Lm 17.83RUNEOCPI41
     ZTF02rx  C2019 02 09.30101709 41 50.54 -02 48 19.7    ~29Lm 17.83RUNEOCPI41

Station data:
(I41) Palomar Mountain--ZTF  (N33.357340 W116.859780)  US/California. 1.2-m
   f/2.44 Oschin Schmidt + CCD.

Orbital elements:  ZTF02rx
   Perigee 2019 Feb 9.034694 +/- 37.9 TT =  0:49:57 (JD 2458523.534694)
Epoch 2019 Feb  9.0 TT = JDT 2458523.5                        AutoNEOCP
q 28789.6327 +/- 1.85e+7            (J2000 equator)
H   33.2  G 0.15                    Peri.   79.98061 +/- 59
                                    Node   323.85994 +/- 80
e   1.4153893 +/- 0.241             Incl.   35.67954 +/- 2.7
From 4 observations 2019 Feb. 9 (8.9 min); mean residual 0".61
Residuals in arcseconds: 
190209 I41  .52-  .31-    190209 I41  .55+  .93-    
190209 I41  .52+  .39+    190209 I41  .55-  .85+    

Ephemerides (geocentric):
Date (UTC) HH   RA              Dec         delta   r     elong  mag " sig PA
---- -- -- --  -------------   -----------  ------ ------ -----  --- ---- ---
2019 02 15 22  11 24 45.214   -18 05 22.10  .01076 0.9963 142.2 24.9  68d 179
2019 02 15 23  11 24 47.936   -18 05 40.23  .01082 0.9963 142.2 24.9  68d 179
2019 02 16 00  11 24 50.626   -18 05 58.06  .01088 0.9964 142.3 24.9  68d 179
2019 02 16 01  11 24 53.283   -18 06 15.59  .01095 0.9965 142.3 24.9  68d 179
2019 02 16 02  11 24 55.908   -18 06 32.82  .01101 0.9965 142.3 24.9  68d 179
2019 02 16 03  11 24 58.502   -18 06 49.76  .01107 0.9966 142.3 24.9  68d 179
2019 02 16 04  11 25 01.064   -18 07 06.41  .01113 0.9966 142.4 24.9  68d 179
2019 02 16 05  11 25 03.596   -18 07 22.78  .01119 0.9967 142.4 25.0  68d 179
2019 02 16 06  11 25 06.097   -18 07 38.88  .01125 0.9968 142.4 25.0  68d 179
2019 02 16 07  11 25 08.569   -18 07 54.70  .01131 0.9968 142.4 25.0  68d 179
2019 02 16 08  11 25 11.012   -18 08 10.25  .01137 0.9969 142.5 25.0  68d 179
2019 02 16 09  11 25 13.425   -18 08 25.53  .01143 0.9969 142.5 25.0  68d 179
2019 02 16 10  11 25 15.811   -18 08 40.55  .01149 0.9970 142.5 25.0  68d 179
2019 02 16 11  11 25 18.168   -18 08 55.31  .01155 0.9971 142.5 25.0  68d 179
2019 02 16 12  11 25 20.497   -18 09 09.82  .01161 0.9971 142.6 25.0  68d 179
2019 02 16 13  11 25 22.800   -18 09 24.08  .01167 0.9972 142.6 25.0  68d 179
2019 02 16 14  11 25 25.075   -18 09 38.09  .01173 0.9972 142.6 25.1  68d 179
2019 02 16 15  11 25 27.324   -18 09 51.85  .01179 0.9973 142.7 25.1  68d 179
2019 02 16 16  11 25 29.547   -18 10 05.38  .01185 0.9974 142.7 25.1  68d 179
2019 02 16 17  11 25 31.744   -18 10 18.66  .01191 0.9974 142.7 25.1  68d 179
2019 02 16 18  11 25 33.915   -18 10 31.71  .01198 0.9975 142.7 25.1  68d 179
2019 02 16 19  11 25 36.062   -18 10 44.53  .01204 0.9975 142.8 25.1  68d 179
2019 02 16 20  11 25 38.184   -18 10 57.12  .01210 0.9976 142.8 25.1  68d 179
2019 02 16 21  11 25 40.281   -18 11 09.48  .01216 0.9977 142.8 25.1  68d 179
2019 02 16 22  11 25 42.355   -18 11 21.63  .01222 0.9977 142.8 25.1  68d 179
2019 02 16 23  11 25 44.404   -18 11 33.55  .01228 0.9978 142.9 25.1  68d 179
2019 02 17 00  11 25 46.430   -18 11 45.26  .01234 0.9978 142.9 25.2  68d 179
2019 02 17 01  11 25 48.433   -18 11 56.75  .01240 0.9979 142.9 25.2  68d 179
2019 02 17 02  11 25 50.414   -18 12 08.03  .01246 0.9980 143.0 25.2  68d 179
2019 02 17 03  11 25 52.371   -18 12 19.10  .01252 0.9980 143.0 25.2  68d 179
2019 02 17 04  11 25 54.307   -18 12 29.96  .01258 0.9981 143.0 25.2  68d 179
2019 02 17 05  11 25 56.220   -18 12 40.62  .01264 0.9981 143.0 25.2  68d 179
2019 02 17 06  11 25 58.111   -18 12 51.08  .01270 0.9982 143.1 25.2  68d 179
2019 02 17 07  11 25 59.982   -18 13 01.35  .01276 0.9983 143.1 25.2  68d 179
2019 02 17 08  11 26 01.830   -18 13 11.41  .01282 0.9983 143.1 25.2  68d 179
2019 02 17 09  11 26 03.658   -18 13 21.28  .01288 0.9984 143.1 25.2  68d 179
2019 02 17 10  11 26 05.466   -18 13 30.96  .01294 0.9984 143.2 25.3  68d 179
2019 02 17 11  11 26 07.252   -18 13 40.45  .01300 0.9985 143.2 25.3  68d 179
2019 02 17 12  11 26 09.019   -18 13 49.75  .01306 0.9986 143.2 25.3  68d 179
2019 02 17 13  11 26 10.766   -18 13 58.87  .01312 0.9986 143.3 25.3  68d 179
2019 02 17 14  11 26 12.493   -18 14 07.80  .01318 0.9987 143.3 25.3  68d 179
2019 02 17 15  11 26 14.200   -18 14 16.55  .01325 0.9987 143.3 25.3  68d 179
2019 02 17 16  11 26 15.888   -18 14 25.13  .01331 0.9988 143.3 25.3  68d 179
2019 02 17 17  11 26 17.557   -18 14 33.52  .01337 0.9989 143.4 25.3  68d 179
2019 02 17 18  11 26 19.208   -18 14 41.75  .01343 0.9989 143.4 25.3  68d 179
2019 02 17 19  11 26 20.839   -18 14 49.79  .01349 0.9990 143.4 25.3  68d 179
2019 02 17 20  11 26 22.452   -18 14 57.67  .01355 0.9991 143.5 25.3  68d 179
2019 02 17 21  11 26 24.047   -18 15 05.38  .01361 0.9991 143.5 25.4  68d 179